Flag for Germany Weather past 2 weeks in Helmstedt, Lower Saxony, Germany

45 °F

Scattered clouds.

Feels Like: 38 °F
Forecast: 42 / 50 °F
Wind: 15 mph from West

Location: Braunschweig

Current Time: Nov 30, 2015 at 11:44:17 AM

Latest Report: Nov 30, 2015 at 10:50 AM

Visibility: N/A

Pressure: 29.95 "Hg

Humidity: 66%

Dew point: 34 °F

Location of HelmstedtLocation

Historic Weather in Helmstedt — Graph


Helmstedt temperature yesterday

Maximum temperature yesterday: 52 °F (at 8:20 PM)
Minimum temperature yesterday: 41 °F (at 8:50 AM)
Average temperature yesterday: 46 °F

Past Weeks' High & Low Weather Summary

High57 °F (Nov 17, 1:20 PM)100% (Nov 15, 10:20 AM)30.21 "Hg (Nov 15, 10:20 AM)
Low32 °F (Nov 22, 4:50 PM)59% (Nov 18, 8:20 PM)29.36 "Hg (Nov 21, 7:50 AM)
Average44 °F86%29.78 "Hg
* Reported Nov 15 10:20 AM — Nov 30 10:20 AM, Helmstedt, Weather by CustomWeather, © 2015

Note: Actual official high and low records may vary slightly from our data, if they occured in-between our weather recording intervals... More about our weather records


Helmstedt weather history for previous 24 hours

Time TempWeatherWind HumidityBarometerVisibility
10:20 AM
Mon, Nov 30
45 °FPassing clouds.17 mph66%29.95 "HgN/A
9:50 AM45 °FScattered clouds.17 mph66%29.95 "HgN/A
9:20 AM43 °FPassing clouds.17 mph71%29.92 "HgN/A
8:50 AM43 °FPassing clouds.17 mph71%29.92 "HgN/A
7:50 AM43 °FPassing clouds.14 mph76%29.89 "HgN/A
7:20 AM41 °FPassing clouds.14 mph81%29.86 "HgN/A
6:50 AM41 °FDrizzle. Mostly cloudy.21 mph81%29.83 "HgN/A
9:50 PM
Sun, Nov 29
48 °FHeavy rain. Mostly cloudy.9 mph94%29.56 "Hg4 mi
9:20 PM50 °FHeavy rain. Overcast.23 mph88%29.56 "Hg5 mi
8:50 PM52 °FOvercast.24 mph77%29.56 "HgN/A
8:20 PM52 °FOvercast.20 mph77%29.59 "HgN/A
7:20 PM48 °FPartly cloudy.17 mph87%29.62 "HgN/A
6:50 PM48 °FPassing clouds.15 mph87%29.62 "HgN/A
6:20 PM48 °FLight rain. Passing clouds.16 mph87%29.62 "HgN/A
5:50 PM46 °FPassing clouds.20 mph93%29.62 "Hg5 mi
5:20 PM46 °FLight rain. Passing clouds.17 mph93%29.62 "HgN/A
4:50 PM46 °FLight rain. Partly cloudy.12 mph93%29.65 "Hg5 mi
4:20 PM46 °FLight rain. Passing clouds.14 mph87%29.65 "Hg5 mi
3:50 PM48 °FPartly sunny.14 mph82%29.65 "HgN/A
3:20 PM48 °FPartly sunny.12 mph82%29.68 "HgN/A
2:50 PM46 °FPartly sunny.12 mph93%29.68 "HgN/A
2:20 PM45 °FMore clouds than sun.9 mph93%29.68 "HgN/A
1:50 PM45 °FBroken clouds.9 mph93%29.71 "HgN/A
1:20 PM45 °FLight rain. Partly sunny.8 mph93%29.71 "Hg5 mi
12:50 PM45 °FLight rain. More clouds than sun.7 mph87%29.71 "HgN/A
12:20 PM45 °FMostly cloudy.10 mph87%29.71 "HgN/A
11:50 AM45 °FLight rain. Partly sunny.15 mph87%29.71 "HgN/A
11:20 AM45 °FOvercast.18 mph87%29.71 "HgN/A
Weather by CustomWeather, © 2015

See weather overviewHow to use our weather pages